TimeEDT,TemperatureF,Dew PointF,Humidity,Sea Level PressureIn,VisibilityMPH,Wind Direction,Wind SpeedMPH,Gust SpeedMPH,PrecipitationIn,Events,Conditions,WindDirDegrees,DateUTC
12:53 AM,37.9,26.1,62,29.91,10.0,NNW,10.4,-,N/A,,Overcast,330,2013-03-26 04:53:00
1:53 AM,37.0,26.1,65,29.93,10.0,NNW,9.2,-,N/A,,Overcast,330,2013-03-26 05:53:00
2:53 AM,36.0,26.1,67,29.94,10.0,NNW,10.4,-,N/A,,Overcast,330,2013-03-26 06:53:00
3:53 AM,36.0,26.1,67,29.94,10.0,NW,11.5,-,N/A,,Overcast,320,2013-03-26 07:53:00
4:53 AM,36.0,26.1,67,29.94,10.0,NW,10.4,-,N/A,,Overcast,320,2013-03-26 08:53:00
5:53 AM,36.0,26.1,67,29.95,10.0,NW,12.7,-,N/A,,Overcast,320,2013-03-26 09:53:00
6:53 AM,36.0,26.1,67,29.97,10.0,NW,9.2,-,N/A,,Overcast,320,2013-03-26 10:53:00
7:53 AM,35.1,26.1,70,30.00,10.0,NW,5.8,-,N/A,,Overcast,320,2013-03-26 11:53:00
8:53 AM,37.0,27.0,67,30.02,10.0,NW,9.2,-,N/A,,Overcast,320,2013-03-26 12:53:00
9:53 AM,37.9,27.0,65,30.03,10.0,NW,9.2,-,N/A,,Overcast,320,2013-03-26 13:53:00
10:53 AM,42.1,28.9,60,30.04,10.0,NW,9.2,-,N/A,,Overcast,320,2013-03-26 14:53:00
11:53 AM,44.1,28.0,53,30.04,10.0,WNW,13.8,-,N/A,,Overcast,300,2013-03-26 15:53:00
12:53 PM,45.0,27.0,49,30.04,10.0,WNW,15.0,19.6,N/A,,Overcast,300,2013-03-26 16:53:00
1:04 PM,46.4,28.4,50,30.03,10.0,WNW,12.7,17.3,N/A,,Overcast,290,2013-03-26 17:04:00
1:53 PM,48.0,27.0,44,30.03,10.0,NW,16.1,-,N/A,,Overcast,310,2013-03-26 17:53:00
2:53 PM,45.0,26.1,48,30.04,10.0,NW,12.7,-,N/A,,Overcast,320,2013-03-26 18:53:00
3:53 PM,43.0,25.0,49,30.04,10.0,NW,12.7,-,N/A,,Overcast,320,2013-03-26 19:53:00
4:53 PM,41.0,30.0,65,30.05,10.0,WNW,4.6,-,0.00,,Overcast,290,2013-03-26 20:53:00
5:53 PM,42.1,26.1,53,30.05,10.0,WNW,13.8,-,N/A,,Overcast,300,2013-03-26 21:53:00
6:53 PM,42.1,25.0,51,30.06,10.0,WNW,11.5,-,N/A,,Overcast,300,2013-03-26 22:53:00
7:53 PM,41.0,25.0,53,30.09,10.0,WNW,11.5,-,N/A,,Overcast,290,2013-03-26 23:53:00
8:53 PM,39.9,27.0,60,30.10,10.0,WNW,13.8,-,N/A,,Overcast,290,2013-03-27 00:53:00
9:53 PM,39.0,28.0,65,30.11,10.0,WNW,15.0,23.0,N/A,,Overcast,300,2013-03-27 01:53:00
10:53 PM,37.9,28.9,70,30.12,10.0,West,10.4,-,N/A,,Overcast,280,2013-03-27 02:53:00
11:53 PM,37.9,28.9,70,30.12,10.0,WNW,11.5,-,N/A,,Overcast,290,2013-03-27 03:53:00